[[{"header":{"parameterUnit":"m.s-1","parameterCategory":1,"la1":30.2991,"la2":30.254,"lo1":-89.0895,"lo2":-89.0444,"dy":0.0017,"dx":0.0017,"nx":28,"ny":28,"refTime":"2025-05-21T09:00:00:Z","depth":0,"parameterNumber":2,"parameterNumberName":"U-component_of_WINDS"},"data":[0,0,0,0,0,0,0,0,0,0,0,0,0,0,0,0,0,0,0,0,0,0,0,0,0,0,0,0,0,0,0,0,0,0,0,0,0,0,0,0,0,0,0,0,0,0,0,0,0,0,0,0,0,0,0,0,0,0,3.8436,3.8437,0,3.8521,3.8522,3.8523,3.8456,3.8453,3.8451,3.8448,3.8536,3.8541,3.8546,0,0,0,0,0,0,0,0,0,0,0,0,0,3.8217,3.8221,3.8436,3.8437,3.8439,3.8521,3.8522,3.8523,3.8457,3.8453,3.845,3.8447,3.8534,3.854,3.8546,0,0,0,0,0,0,0,0,0,0,0,0,0,3.8308,3.8223,3.8436,3.8415,3.8414,3.8521,3.8522,3.8524,3.8458,3.8453,3.8449,3.8445,3.8532,3.854,3.8547,3.8679,0,0,3.857,3.8573,0,0,0,0,0,0,0,0,3.8303,3.8316,3.8417,3.8417,3.8416,3.8474,3.8477,3.8576,3.8459,3.8441,3.8448,3.8443,3.8519,3.8527,3.8552,3.8683,3.8687,3.8571,3.8575,3.8578,3.8581,0,0,0,0,0,0,0,3.8297,3.8312,3.847,3.8419,3.8418,3.8401,3.841,3.8495,3.8503,3.8442,3.8438,3.8449,3.8518,3.8545,3.8554,3.8688,3.857,3.8577,3.8582,3.8585,3.8929,3.8933,0,0,0,0,0,0,3.8292,3.8307,3.8467,3.8472,3.8348,3.8409,3.8418,3.846,3.8502,3.8504,3.8452,3.8445,3.8535,3.8545,3.8557,3.8712,3.8578,3.8585,3.859,3.8924,3.893,3.8935,0,0,0,0,0,0,3.8288,3.8307,3.8464,3.8389,3.8407,3.8417,3.8464,3.8463,3.8491,3.8509,3.851,3.8479,3.8532,3.8546,3.8648,3.8714,3.8589,3.8596,3.8919,3.8926,3.8932,3.9025,0,0,0,0,0,0,3.8282,3.8306,3.8357,3.839,3.8412,3.8554,3.8468,3.8468,3.8504,3.8496,3.8535,3.8537,3.853,3.8638,3.8656,3.8722,3.8602,3.8913,3.8922,3.893,3.9016,3.9034,3.905,0,0,0,0,0,3.8274,3.838,3.836,3.8379,3.8475,3.8558,3.857,3.8559,3.851,3.856,3.8571,3.8536,3.8704,3.8649,3.8669,3.8738,3.8909,3.8919,3.8929,3.9008,3.9031,3.9049,0,0,0,0,0,0,3.8355,3.8384,3.8362,3.8482,3.8518,3.8547,3.861,3.8583,3.8635,3.8625,3.8609,3.8618,3.8725,3.8742,3.8679,3.8867,3.8799,3.8814,3.8852,3.8873,3.889,3.8883,3.8608,0,0,0,0,0,3.8386,3.8452,3.8474,3.8578,3.8597,3.8601,3.8637,3.8624,3.8661,3.8677,3.8695,3.8733,3.8794,3.8835,3.8892,3.9019,3.9025,3.9076,3.9093,3.9107,3.912,3.9185,3.9208,3.8969,3.8969,3.8969,0,0,3.8453,3.8477,3.8519,3.8594,3.8621,3.8688,3.8614,3.8689,3.8738,3.8688,3.8785,3.88,3.8841,3.8955,3.9006,3.8973,3.9187,3.912,3.9131,3.9136,3.9198,3.9221,3.9241,3.8976,3.8975,3.8974,0,0,3.8607,3.8633,3.872,3.8748,3.8789,3.8791,3.8812,3.8845,3.8853,3.8949,3.8912,3.8971,3.9077,3.9107,3.9136,3.93,3.9269,3.9319,3.9407,3.9471,3.949,3.9507,3.9563,3.9584,3.9332,3.9333,3.9333,0,3.8684,3.8784,3.8769,3.8846,3.888,3.8836,3.8924,3.8952,3.901,3.9034,3.8996,3.9126,3.9151,3.927,3.931,3.9336,3.9358,3.9314,3.9489,3.9505,3.952,3.9574,3.9595,3.9338,3.9338,3.9337,3.9336,0,3.8875,3.8945,3.9011,3.9067,3.9108,3.919,3.9188,3.9231,3.9215,3.9221,3.9319,3.9347,3.9408,3.9435,3.9422,3.9553,3.953,3.9491,3.9421,3.9549,3.9599,3.9619,3.9346,3.9344,3.9343,3.9341,0,0,3.9083,3.9128,3.9152,3.9176,3.9217,3.9271,3.9351,3.941,3.9446,3.9488,3.9553,3.9643,3.9606,3.9639,3.9628,3.9685,3.981,3.9638,3.9639,3.9667,3.9954,3.9982,4.0006,3.979,3.9794,3.9797,3.9949,0,3.9237,3.9376,3.9364,3.9495,3.9558,3.9517,3.9586,3.9619,3.9626,3.9681,3.9689,3.9752,3.9699,3.9718,3.9773,3.9783,3.9867,3.9772,3.985,3.9853,3.9839,4.0032,4.0063,4.0205,3.9969,3.9972,3.9975,0,3.9436,3.9482,3.9619,3.9649,3.9675,3.9738,3.9789,3.9842,3.9878,3.9879,3.9915,3.9894,3.9974,3.9903,4.0012,3.9948,3.9979,3.9989,3.9994,3.9999,3.992,4.0041,4.0251,4.0271,4.0006,4.0003,4.0001,0,3.9571,3.9668,3.9762,3.9784,3.9821,3.9866,3.9883,3.9915,3.995,3.9996,4.0018,4.0073,4.0103,4.0146,4.014,4.0089,4.025,4.0179,4.0252,4.0252,4.0286,4.0284,4.0502,4.031,4.0309,4.0309,4.0308,0,3.9743,3.9828,3.9822,3.988,3.9973,3.9959,4.0052,4.0064,4.0092,4.0151,4.012,4.0176,4.0165,4.022,4.0216,4.0305,4.032,4.0322,4.032,4.0324,4.0323,4.0343,4.0332,4.0315,4.0313,4.0312,4.0311,0,3.9909,3.9909,4.0008,4.0035,4.0043,4.0111,4.0134,4.0188,4.0192,4.0266,4.0283,4.029,4.0353,4.0351,4.0424,4.0421,4.053,4.0518,4.0518,4.0515,4.0586,4.0579,4.0823,4.0853,4.0643,4.0645,4.0647,0,4.0018,4.0082,4.0115,4.0152,4.0172,4.0232,4.0268,4.0256,4.0295,4.0339,4.0387,4.0448,4.0495,4.0599,4.061,4.0665,4.0652,4.0734,4.066,4.0661,4.065,4.0646,4.0651,4.0748,4.075,4.0752,4.0753,0,4.0211,4.0207,4.026,4.0312,4.0355,4.0396,4.0433,4.0465,4.0457,4.0502,4.0565,4.0602,4.0675,4.0735,4.0788,4.0806,4.0778,4.0777,4.0796,4.08,4.0796,4.0797,4.0555,4.0771,4.0769,4.0768,4.0767,4.0766,4.035,4.0404,4.0436,4.0494,4.0521,4.0556,4.0607,4.0617,4.067,4.0728,4.0719,4.079,4.0822,4.0889,4.0912,4.0967,4.0938,4.0967,4.0974,4.098,4.0987,4.0789,4.0977,4.0977,4.0976,4.0976,4.0975,0,4.054,4.0558,4.0612,4.0664,4.071,4.068,4.0719,4.0759,4.0822,4.0855,4.0901,4.0974,4.1032,4.1047,4.1102,4.1143,4.1132,4.1158,4.1154,4.1158,4.1011,4.0988,4.1166,4.1166,4.1166,4.1166,4.1166,4.1166,4.0644,4.0732,4.0732,4.0834,4.0851,4.092,4.0944,4.0976,4.1002,4.1084,4.1131,4.1141,4.1166,4.1222,4.1273,4.1276,4.1297,4.1328,4.1326,4.1188,4.1169,4.115,4.1128,4.1333,4.1333,4.1468,4.1469,4.147]},{"header":{"parameterUnit":"m.s-1","parameterCategory":1,"la1":30.2991,"la2":30.254,"lo1":-89.0895,"lo2":-89.0444,"dy":0.0017,"dx":0.0017,"nx":28,"ny":28,"refTime":"2025-05-21T09:00:00:Z","depth":0,"parameterNumber":3,"parameterNumberName":"V-component_of_WINDS"},"data":[0,0,0,0,0,0,0,0,0,0,0,0,0,0,0,0,0,0,0,0,0,0,0,0,0,0,0,0,0,0,0,0,0,0,0,0,0,0,0,0,0,0,0,0,0,0,0,0,0,0,0,0,0,0,0,0,0,0,4.1958,4.1959,0,4.2103,4.2105,4.2107,4.208,4.2077,4.2074,4.2072,4.222,4.2226,4.2232,0,0,0,0,0,0,0,0,0,0,0,0,0,4.1653,4.1659,4.1958,4.1959,4.1961,4.2103,4.2105,4.2107,4.208,4.2077,4.2074,4.2071,4.2218,4.2225,4.2233,0,0,0,0,0,0,0,0,0,0,0,0,0,4.1791,4.1661,4.1957,4.1965,4.1967,4.2103,4.2105,4.2108,4.2081,4.2077,4.2073,4.2069,4.2215,4.2225,4.2234,4.2371,0,0,4.2263,4.2267,0,0,0,0,0,0,0,0,4.1783,4.1802,4.1962,4.1965,4.1967,4.2069,4.2052,4.2196,4.2082,4.2038,4.2072,4.2067,4.2173,4.2186,4.2222,4.2378,4.2384,4.2264,4.227,4.2274,4.2277,0,0,0,0,0,0,0,4.1774,4.1796,4.2015,4.1964,4.1968,4.196,4.1975,4.2079,4.2125,4.2041,4.2039,4.2057,4.2174,4.2212,4.2225,4.2387,4.2264,4.2272,4.2278,4.2282,4.2662,4.2666,0,0,0,0,0,0,4.1762,4.1788,4.2011,4.202,4.1864,4.1969,4.1986,4.204,4.2124,4.2133,4.206,4.2055,4.2198,4.2214,4.223,4.2396,4.2274,4.2283,4.2288,4.2657,4.2662,4.2667,0,0,0,0,0,0,4.1755,4.1782,4.2005,4.1903,4.1931,4.1978,4.204,4.2045,4.2084,4.2139,4.2146,4.2092,4.2196,4.2216,4.2336,4.2401,4.2287,4.2296,4.2652,4.2659,4.2665,4.2729,0,0,0,0,0,0,4.1747,4.178,4.1833,4.1905,4.1937,4.211,4.2044,4.2051,4.2101,4.2096,4.217,4.2179,4.2194,4.2322,4.2346,4.2412,4.2303,4.2647,4.2655,4.2663,4.2721,4.2737,4.275,0,0,0,0,0,4.1736,4.1845,4.1836,4.1863,4.2004,4.2113,4.2131,4.2147,4.2106,4.216,4.2194,4.2176,4.2389,4.2334,4.2361,4.2431,4.2643,4.2653,4.2662,4.2715,4.2734,4.275,0,0,0,0,0,0,4.178,4.1855,4.1846,4.1981,4.2041,4.2108,4.2177,4.2167,4.2239,4.2232,4.2247,4.2264,4.2386,4.242,4.2358,4.2567,4.251,4.2526,4.2541,4.2559,4.2573,4.2563,4.2311,0,0,0,0,0,4.1805,4.1888,4.1949,4.2063,4.2093,4.213,4.2178,4.2185,4.2247,4.2272,4.2316,4.2376,4.2457,4.251,4.2587,4.2725,4.2741,4.2786,4.28,4.2812,4.2826,4.2901,4.2922,4.2699,4.2699,4.2699,0,0,4.1859,4.191,4.1961,4.2073,4.212,4.2205,4.2151,4.2243,4.2306,4.2286,4.2402,4.2436,4.2504,4.2634,4.2693,4.2666,4.289,4.2824,4.2833,4.2841,4.2913,4.2934,4.2953,4.2706,4.2705,4.2704,0,0,4.2,4.2047,4.2147,4.2195,4.2267,4.2291,4.2315,4.2383,4.2405,4.2522,4.2508,4.2582,4.2721,4.277,4.2813,4.2971,4.2957,4.2995,4.3071,4.3145,4.3162,4.3178,4.3234,4.3254,4.3009,4.3009,4.3009,0,4.2058,4.2186,4.22,4.2293,4.2342,4.2327,4.2428,4.2474,4.2567,4.2601,4.2569,4.2742,4.2788,4.2928,4.2967,4.3002,4.3029,4.2988,4.3158,4.3174,4.3189,4.3243,4.3264,4.3013,4.3013,4.3012,4.3012,0,4.2253,4.2342,4.2413,4.2504,4.2561,4.2658,4.2685,4.2741,4.2742,4.2769,4.2887,4.294,4.3027,4.3061,4.3063,4.3202,4.3183,4.3155,4.3098,4.3214,4.3265,4.3286,4.3019,4.3018,4.3016,4.3015,0,0,4.2428,4.2524,4.255,4.2591,4.2669,4.2737,4.2832,4.2918,4.2965,4.3029,4.3109,4.3226,4.32,4.3249,4.3256,4.332,4.3442,4.3284,4.3286,4.3312,4.3598,4.3619,4.3643,4.3432,4.3436,4.3439,4.3592,0,4.2577,4.2746,4.276,4.2912,4.2994,4.298,4.3063,4.3119,4.3145,4.3218,4.3246,4.3329,4.3288,4.3318,4.338,4.3414,4.35,4.3403,4.3507,4.351,4.3492,4.367,4.3693,4.3835,4.3612,4.3616,4.3618,0,4.2774,4.2844,4.3004,4.3069,4.3104,4.3179,4.3258,4.3327,4.339,4.3404,4.3458,4.3456,4.3553,4.3492,4.3625,4.3559,4.3602,4.3624,4.363,4.3642,4.3572,4.3687,4.3881,4.3903,4.365,4.3647,4.3645,0,4.2886,4.302,4.3134,4.3169,4.3247,4.33,4.3335,4.3394,4.3444,4.3512,4.3545,4.3624,4.3667,4.3728,4.3747,4.37,4.3879,4.3819,4.3894,4.3894,4.3934,4.3932,4.4139,4.396,4.3959,4.3959,4.3959,0,4.3052,4.315,4.3185,4.3255,4.3364,4.3379,4.3487,4.3518,4.3571,4.3645,4.3637,4.3708,4.3728,4.3802,4.3817,4.3925,4.3944,4.3958,4.3962,4.396,4.3958,4.399,4.3981,4.3965,4.3963,4.3962,4.3961,0,4.3197,4.3224,4.3346,4.341,4.3428,4.3506,4.3561,4.3627,4.3652,4.3747,4.377,4.3808,4.3894,4.3919,4.4022,4.4032,4.4159,4.4153,4.4139,4.4139,4.4213,4.4206,4.4448,4.4481,4.4279,4.4281,4.4283,0,4.3301,4.3377,4.3449,4.3498,4.3536,4.3616,4.3667,4.3684,4.3737,4.3813,4.387,4.3955,4.4025,4.4162,4.4199,4.4278,4.4274,4.4353,4.4286,4.4281,4.4276,4.4272,4.4279,4.4366,4.4368,4.437,4.4372,0,4.3484,4.3493,4.3568,4.3647,4.3708,4.3771,4.3831,4.3872,4.3897,4.3957,4.4045,4.4099,4.4204,4.4288,4.4367,4.4402,4.4392,4.4392,4.4414,4.4414,4.4403,4.441,4.4174,4.4387,4.4385,4.4384,4.4383,4.4383,4.3613,4.3679,4.374,4.3822,4.3869,4.3925,4.3991,4.4023,4.4097,4.4185,4.4189,4.4285,4.4344,4.445,4.4489,4.4563,4.454,4.4571,4.4579,4.4587,4.4593,4.439,4.4577,4.4577,4.4576,4.4576,4.4576,0,4.3796,4.3834,4.3909,4.3994,4.4059,4.4042,4.4108,4.4163,4.4247,4.4303,4.4371,4.4472,4.4553,4.4596,4.4677,4.4728,4.4725,4.4749,4.4746,4.4754,4.4609,4.4583,4.475,4.475,4.475,4.475,4.475,4.475,4.3899,4.401,4.4026,4.416,4.4197,4.4291,4.433,4.4381,4.4426,4.4539,4.4607,4.4634,4.4685,4.4769,4.4842,4.4852,4.4883,4.491,4.4917,4.4782,4.4764,4.4747,4.4723,4.4916,4.4916,4.5056,4.5057,4.5058]}]]